Погода в Центарое

Россия / Чеченская Республика     43°00′27″N   46°13′24″E
темп.,
°C
ветер,
м/с
пор.,
м/с
влажн.,
%
обл.,
%
осадки,
мм/ч
давл.,
гПа
погр.,
м
16 мая, вс
вс1600:00+16ююв335928 0.0 101339
03:00+16ю335619 0.0 101245
06:00+17ю34585 0.0 101166
09:00+25ссв12375 0.0 1009964
12:00+27с33362 0.0 10081648
15:00+28с33331 0.0 10061571
18:00+24сз00540 0.0 100511
21:00+19ю44494 0.0 100754
17 мая, пн
пн1700:00+17ю453771 0.0 100769
03:00+16ю44327 0.0 100657
06:00+17ю334436 0.0 100755
09:00+26ссв1227100 0.0 1005737
12:00+29ссв23250 0.0 10051796
15:00+28с32300 0.0 10041187
18:00+24ссз1158100 0.0 100413
21:00+18ююз226977 0.0 100836
18 мая, вт
вт1800:00+18ююв116687 0.0 100612
03:00+14зюз227528 0.0 100723
06:00+15з388691 0.0 1010683
09:00+14зсз2691100 0.2 1010730
12:00+13зсз1396100 1.6 1012328
15:00+14зюз1397100 3.3 1012251
18:00+15з1284100 0.6 1012207
21:00+12ю229113 0.8 101431
19 мая, ср
ср1900:00+12ю22886 0.0 101423
03:00+11ю228885 0.0 101428
06:00+14ююв11773 0.0 101451
09:00+20с32544 0.0 10121036
12:00+21с425143 0.1 10131470
15:00+20ссв225181 0.2 10141583
18:00+18вюв116393 0.1 101659
21:00+15ю226738 0.1 101821
20 мая, чт
чт2000:00+13ю21769 0.0 101813
03:00+12ююв21820 0.0 101814
06:00+14всв01740 0.0 1019110
09:00+20ссв33540 0.0 1016905
12:00+24ссв44442 0.0 10131205
15:00+24ссв44460 0.0 1012835
18:00+19с11663 0.0 101396
21:00+16ю21751 0.0 101320